Time,TemperatureF,DewpointF,PressureIn,WindDirection,WindDirectionDegrees,WindSpeedMPH,WindSpeedGustMPH,Humidity,HourlyPrecipIn,Conditions,Clouds,dailyrainin,SoftwareType,DateUTC
2013-01-18 00:01:00,22.0,12.2,30.47,NW,315,10.1,14.8,66,0.00,,,0.00,WUHU216HW,2013-01-18 05:01:00,
2013-01-18 00:06:00,22.0,12.2,30.47,NNW,338,10.1,11.2,66,0.00,,,0.00,WUHU216HW,2013-01-18 05:06:00,
2013-01-18 00:11:00,22.0,12.2,30.47,North,0,10.3,15.4,66,0.00,,,0.00,WUHU216HW,2013-01-18 05:11:00,
2013-01-18 00:16:00,22.1,12.4,30.48,NW,315,14.3,15.4,66,0.00,,,0.00,WUHU216HW,2013-01-18 05:16:00,
2013-01-18 00:21:00,22.1,12.4,30.48,NW,315,8.1,14.3,66,0.00,,,0.00,WUHU216HW,2013-01-18 05:21:00,
2013-01-18 00:26:00,22.1,12.4,30.47,NW,315,11.9,14.5,66,0.00,,,0.00,WUHU216HW,2013-01-18 05:26:00,
2013-01-18 00:31:00,22.0,12.2,30.47,NW,315,9.6,14.5,66,0.00,,,0.00,WUHU216HW,2013-01-18 05:31:00,
2013-01-18 00:36:00,22.0,12.2,30.48,NW,315,9.6,15.0,66,0.00,,,0.00,WUHU216HW,2013-01-18 05:36:00,
2013-01-18 00:41:00,22.0,12.2,30.48,NW,315,11.4,15.0,66,0.00,,,0.00,WUHU216HW,2013-01-18 05:41:00,
2013-01-18 00:46:00,22.0,12.2,30.48,NW,315,6.9,12.3,66,0.00,,,0.00,WUHU216HW,2013-01-18 05:46:00,
2013-01-18 00:51:00,22.0,12.2,30.48,NW,315,9.6,13.9,66,0.00,,,0.00,WUHU216HW,2013-01-18 05:51:00,
2013-01-18 00:56:00,22.0,12.0,30.48,NW,315,11.4,13.9,65,0.00,,,0.00,WUHU216HW,2013-01-18 05:56:00,
2013-01-18 01:01:00,22.0,12.0,30.48,NNW,338,8.3,11.4,65,0.00,,,0.00,WUHU216HW,2013-01-18 06:01:00,
2013-01-18 01:06:00,21.8,12.2,30.48,NW,315,8.5,10.5,66,0.00,,,0.00,WUHU216HW,2013-01-18 06:06:00,
2013-01-18 01:11:00,21.8,11.8,30.48,NNW,338,4.0,9.2,65,0.00,,,0.00,WUHU216HW,2013-01-18 06:11:00,
2013-01-18 01:17:00,21.8,11.8,30.49,NNW,338,6.9,9.2,65,0.00,,,0.00,WUHU216HW,2013-01-18 06:17:00,
2013-01-18 01:22:00,21.8,11.8,30.49,NW,315,5.8,7.6,65,0.00,,,0.00,WUHU216HW,2013-01-18 06:22:00,
2013-01-18 01:27:00,21.8,12.2,30.49,NNW,338,6.5,7.6,66,0.00,,,0.00,WUHU216HW,2013-01-18 06:27:00,
2013-01-18 01:32:00,21.6,12.0,30.49,NNW,338,2.7,6.5,66,0.00,,,0.00,WUHU216HW,2013-01-18 06:32:00,
2013-01-18 01:37:00,21.6,11.6,30.50,North,0,4.9,7.6,65,0.00,,,0.00,WUHU216HW,2013-01-18 06:37:00,
2013-01-18 01:42:00,21.4,11.4,30.50,NNW,338,4.0,7.6,65,0.00,,,0.00,WUHU216HW,2013-01-18 06:42:00,
2013-01-18 01:47:00,21.2,11.3,30.50,NNW,338,5.4,6.0,65,0.00,,,0.00,WUHU216HW,2013-01-18 06:47:00,
2013-01-18 01:52:00,21.2,11.6,30.50,NNW,338,5.6,5.6,66,0.00,,,0.00,WUHU216HW,2013-01-18 06:52:00,
2013-01-18 01:57:00,21.2,11.6,30.51,NNW,338,3.4,5.6,66,0.00,,,0.00,WUHU216HW,2013-01-18 06:57:00,
2013-01-18 02:02:00,21.1,11.4,30.52,NNW,338,2.5,3.4,66,0.00,,,0.00,WUHU216HW,2013-01-18 07:02:00,
2013-01-18 02:07:00,21.1,11.4,30.52,North,0,3.4,3.6,66,0.00,,,0.00,WUHU216HW,2013-01-18 07:07:00,
2013-01-18 02:12:00,21.1,11.8,30.52,NNW,338,2.7,3.8,67,0.00,,,0.00,WUHU216HW,2013-01-18 07:12:00,
2013-01-18 02:17:00,21.1,11.8,30.52,NNW,338,2.9,4.5,67,0.00,,,0.00,WUHU216HW,2013-01-18 07:17:00,
2013-01-18 02:22:00,21.1,12.1,30.52,North,0,3.4,4.7,68,0.00,,,0.00,WUHU216HW,2013-01-18 07:22:00,
2013-01-18 02:27:00,21.1,12.1,30.52,NNW,338,3.4,4.7,68,0.00,,,0.00,WUHU216HW,2013-01-18 07:27:00,
2013-01-18 02:32:00,21.1,12.1,30.52,North,0,3.6,4.3,68,0.00,,,0.00,WUHU216HW,2013-01-18 07:32:00,
2013-01-18 02:37:00,21.1,12.4,30.52,North,0,1.8,4.3,69,0.00,,,0.00,WUHU216HW,2013-01-18 07:37:00,
2013-01-18 02:42:00,20.9,12.2,30.52,North,0,3.1,3.4,69,0.00,,,0.00,WUHU216HW,2013-01-18 07:42:00,
2013-01-18 02:47:00,20.9,12.2,30.51,North,0,4.0,4.0,69,0.00,,,0.00,WUHU216HW,2013-01-18 07:47:00,
2013-01-18 02:52:00,20.9,12.2,30.52,North,0,1.8,4.0,69,0.00,,,0.00,WUHU216HW,2013-01-18 07:52:00,
2013-01-18 02:57:00,20.9,12.2,30.51,North,0,4.5,5.4,69,0.00,,,0.00,WUHU216HW,2013-01-18 07:57:00,
2013-01-18 03:02:00,20.9,12.2,30.51,North,0,3.4,5.4,69,0.00,,,0.00,WUHU216HW,2013-01-18 08:02:00,
2013-01-18 03:07:00,20.7,12.1,30.51,North,0,2.7,3.4,69,0.00,,,0.00,WUHU216HW,2013-01-18 08:07:00,
2013-01-18 03:12:00,20.7,12.1,30.52,NNW,338,1.3,3.4,69,0.00,,,0.00,WUHU216HW,2013-01-18 08:12:00,
2013-01-18 03:17:00,20.5,11.9,30.52,NNW,338,0.7,3.1,69,0.00,,,0.00,WUHU216HW,2013-01-18 08:17:00,
2013-01-18 03:22:00,20.5,11.9,30.52,North,0,0.7,1.8,69,0.00,,,0.00,WUHU216HW,2013-01-18 08:22:00,
2013-01-18 03:27:00,20.5,11.9,30.52,North,0,0.7,1.8,69,0.00,,,0.00,WUHU216HW,2013-01-18 08:27:00,
2013-01-18 03:32:00,20.5,12.2,30.52,NE,45,1.3,1.8,70,0.00,,,0.00,WUHU216HW,2013-01-18 08:32:00,
2013-01-18 03:37:00,20.5,12.2,30.52,NE,45,1.1,1.6,70,0.00,,,0.00,WUHU216HW,2013-01-18 08:37:00,
2013-01-18 03:42:00,20.5,12.2,30.52,East,90,0.4,1.3,70,0.00,,,0.00,WUHU216HW,2013-01-18 08:42:00,
2013-01-18 03:47:00,20.3,11.7,30.52,East,90,0.4,1.1,69,0.00,,,0.00,WUHU216HW,2013-01-18 08:47:00,
2013-01-18 03:52:00,20.2,11.9,30.52,East,90,0.4,0.9,70,0.00,,,0.00,WUHU216HW,2013-01-18 08:52:00,
2013-01-18 03:57:00,20.2,11.9,30.52,East,90,0.4,0.9,70,0.00,,,0.00,WUHU216HW,2013-01-18 08:57:00,
2013-01-18 04:02:00,20.2,11.9,30.52,East,90,1.8,1.8,70,0.00,,,0.00,WUHU216HW,2013-01-18 09:02:00,
2013-01-18 04:07:00,20.2,12.2,30.51,ENE,68,1.3,1.8,71,0.00,,,0.00,WUHU216HW,2013-01-18 09:07:00,
2013-01-18 04:12:00,20.2,11.9,30.52,East,90,1.1,1.8,70,0.00,,,0.00,WUHU216HW,2013-01-18 09:12:00,
2013-01-18 04:17:00,20.2,11.9,30.51,East,90,0.4,1.3,70,0.00,,,0.00,WUHU216HW,2013-01-18 09:17:00,
2013-01-18 04:22:00,20.2,11.9,30.51,East,90,0.9,1.1,70,0.00,,,0.00,WUHU216HW,2013-01-18 09:22:00,
2013-01-18 04:27:00,20.2,11.9,30.51,East,90,1.8,1.8,70,0.00,,,0.00,WUHU216HW,2013-01-18 09:27:00,
2013-01-18 04:32:00,20.2,11.9,30.52,East,90,0.4,1.8,70,0.00,,,0.00,WUHU216HW,2013-01-18 09:32:00,
2013-01-18 04:37:00,20.2,11.9,30.52,East,90,0.4,1.6,70,0.00,,,0.00,WUHU216HW,2013-01-18 09:37:00,
2013-01-18 04:42:00,20.2,11.9,30.52,East,90,0.7,0.7,70,0.00,,,0.00,WUHU216HW,2013-01-18 09:42:00,
2013-01-18 04:47:00,20.3,12.3,30.51,ENE,68,1.8,1.8,71,0.00,,,0.00,WUHU216HW,2013-01-18 09:47:00,
2013-01-18 04:52:00,20.3,12.7,30.51,ENE,68,3.1,3.1,72,0.00,,,0.00,WUHU216HW,2013-01-18 09:52:00,
2013-01-18 04:57:00,20.3,12.3,30.52,ESE,113,1.8,3.1,71,0.00,,,0.00,WUHU216HW,2013-01-18 09:57:00,
2013-01-18 05:02:00,20.3,12.3,30.52,East,90,2.7,3.6,71,0.00,,,0.00,WUHU216HW,2013-01-18 10:02:00,
2013-01-18 05:07:00,20.2,12.5,30.52,East,90,1.1,3.6,72,0.00,,,0.00,WUHU216HW,2013-01-18 10:07:00,
2013-01-18 05:12:00,20.2,12.2,30.51,ESE,113,1.8,3.1,71,0.00,,,0.00,WUHU216HW,2013-01-18 10:12:00,
2013-01-18 05:17:00,20.2,12.2,30.52,ESE,113,1.1,2.7,71,0.00,,,0.00,WUHU216HW,2013-01-18 10:17:00,
2013-01-18 05:22:00,20.2,12.2,30.52,East,90,1.3,2.0,71,0.00,,,0.00,WUHU216HW,2013-01-18 10:22:00,
2013-01-18 05:27:00,20.0,12.0,30.51,East,90,2.0,2.5,71,0.00,,,0.00,WUHU216HW,2013-01-18 10:27:00,
2013-01-18 05:32:00,20.0,12.3,30.51,East,90,3.4,3.4,72,0.00,,,0.00,WUHU216HW,2013-01-18 10:32:00,
2013-01-18 05:37:00,20.0,12.3,30.51,ESE,113,1.8,3.4,72,0.00,,,0.00,WUHU216HW,2013-01-18 10:37:00,
2013-01-18 05:42:00,20.0,12.3,30.52,SE,135,1.1,3.4,72,0.00,,,0.00,WUHU216HW,2013-01-18 10:42:00,
2013-01-18 05:47:00,20.0,12.3,30.52,ESE,113,1.8,3.4,72,0.00,,,0.00,WUHU216HW,2013-01-18 10:47:00,
2013-01-18 05:52:00,20.0,12.3,30.52,East,90,1.8,2.7,72,0.00,,,0.00,WUHU216HW,2013-01-18 10:52:00,
2013-01-18 05:57:00,20.0,12.3,30.52,ESE,113,2.5,2.7,72,0.00,,,0.00,WUHU216HW,2013-01-18 10:57:00,
2013-01-18 06:02:00,20.0,12.3,30.52,ESE,113,1.3,2.5,72,0.00,,,0.00,WUHU216HW,2013-01-18 11:02:00,
2013-01-18 06:07:00,20.0,12.3,30.52,ESE,113,1.6,2.7,72,0.00,,,0.00,WUHU216HW,2013-01-18 11:07:00,
2013-01-18 06:12:00,19.8,12.2,30.52,ESE,113,2.5,3.8,72,0.00,,,0.00,WUHU216HW,2013-01-18 11:12:00,
2013-01-18 06:17:00,19.8,12.2,30.52,ESE,113,2.5,3.8,72,0.00,,,0.00,WUHU216HW,2013-01-18 11:17:00,
2013-01-18 06:22:00,19.8,12.4,30.52,ESE,113,2.5,3.6,73,0.00,,,0.00,WUHU216HW,2013-01-18 11:22:00,
2013-01-18 06:27:00,19.8,12.4,30.52,East,90,2.5,2.7,73,0.00,,,0.00,WUHU216HW,2013-01-18 11:27:00,
2013-01-18 06:32:00,19.8,12.4,30.52,ESE,113,3.4,3.4,73,0.00,,,0.00,WUHU216HW,2013-01-18 11:32:00,
2013-01-18 06:37:00,19.8,12.4,30.52,SE,135,2.5,3.4,73,0.00,,,0.00,WUHU216HW,2013-01-18 11:37:00,
2013-01-18 06:42:00,20.0,12.6,30.52,SE,135,4.0,4.0,73,0.00,,,0.00,WUHU216HW,2013-01-18 11:42:00,
2013-01-18 06:47:00,19.8,12.4,30.52,SE,135,4.3,4.7,73,0.00,,,0.00,WUHU216HW,2013-01-18 11:47:00,
2013-01-18 06:52:00,20.0,13.0,30.51,ESE,113,5.4,6.3,74,0.00,,,0.00,WUHU216HW,2013-01-18 11:52:00,
2013-01-18 06:57:00,20.0,13.0,30.51,ESE,113,4.5,6.3,74,0.00,,,0.00,WUHU216HW,2013-01-18 11:57:00,
2013-01-18 07:02:00,20.0,13.0,30.51,SE,135,4.7,4.9,74,0.00,,,0.00,WUHU216HW,2013-01-18 12:02:00,
2013-01-18 07:07:00,19.8,12.8,30.51,ESE,113,3.8,5.1,74,0.00,,,0.00,WUHU216HW,2013-01-18 12:07:00,
2013-01-18 07:12:00,20.0,13.0,30.51,SE,135,4.0,5.1,74,0.00,,,0.00,WUHU216HW,2013-01-18 12:12:00,
2013-01-18 07:17:00,20.0,13.0,30.51,SE,135,4.7,4.9,74,0.00,,,0.00,WUHU216HW,2013-01-18 12:17:00,
2013-01-18 07:22:00,20.0,13.0,30.50,ESE,113,4.3,4.9,74,0.00,,,0.00,WUHU216HW,2013-01-18 12:22:00,
2013-01-18 07:27:00,20.0,13.2,30.50,ESE,113,4.7,4.9,75,0.00,,,0.00,WUHU216HW,2013-01-18 12:27:00,
2013-01-18 07:32:00,19.8,13.1,30.49,SE,135,5.4,5.4,75,0.00,,,0.00,WUHU216HW,2013-01-18 12:32:00,
2013-01-18 07:37:00,19.8,13.1,30.50,SE,135,4.3,5.4,75,0.00,,,0.00,WUHU216HW,2013-01-18 12:37:00,
2013-01-18 07:42:00,19.8,12.8,30.50,SE,135,5.8,5.8,74,0.00,,,0.00,WUHU216HW,2013-01-18 12:42:00,
2013-01-18 07:47:00,19.8,12.8,30.49,SE,135,5.4,6.5,74,0.00,,,0.00,WUHU216HW,2013-01-18 12:47:00,
2013-01-18 07:52:00,19.8,12.8,30.49,SE,135,5.4,6.5,74,0.00,,,0.00,WUHU216HW,2013-01-18 12:52:00,
2013-01-18 07:58:00,19.8,12.8,30.49,SE,135,4.5,6.3,74,0.00,,,0.00,WUHU216HW,2013-01-18 12:58:00,
2013-01-18 08:03:00,20.0,13.0,30.49,ESE,113,5.6,6.9,74,0.00,,,0.00,WUHU216HW,2013-01-18 13:03:00,
2013-01-18 08:08:00,20.2,13.4,30.49,SE,135,6.3,6.9,75,0.00,,,0.00,WUHU216HW,2013-01-18 13:08:00,
2013-01-18 08:13:00,20.2,13.4,30.49,SE,135,8.9,8.9,75,0.00,,,0.00,WUHU216HW,2013-01-18 13:13:00,
2013-01-18 08:18:00,20.3,13.6,30.49,ESE,113,6.9,8.9,75,0.00,,,0.00,WUHU216HW,2013-01-18 13:18:00,
2013-01-18 08:23:00,20.5,13.8,30.49,SE,135,6.7,7.6,75,0.00,,,0.00,WUHU216HW,2013-01-18 13:23:00,
2013-01-18 08:28:00,20.5,13.8,30.49,ESE,113,6.9,7.6,75,0.00,,,0.00,WUHU216HW,2013-01-18 13:28:00,
2013-01-18 08:33:00,20.9,14.4,30.49,SE,135,6.9,7.6,76,0.00,,,0.00,WUHU216HW,2013-01-18 13:33:00,
2013-01-18 08:38:00,21.1,14.6,30.49,SE,135,6.9,8.1,76,0.00,,,0.00,WUHU216HW,2013-01-18 13:38:00,
2013-01-18 08:43:00,21.2,15.1,30.48,SE,135,6.9,8.1,77,0.00,,,0.00,WUHU216HW,2013-01-18 13:43:00,
2013-01-18 08:48:00,21.4,15.3,30.48,SE,135,8.1,8.1,77,0.00,,,0.00,WUHU216HW,2013-01-18 13:48:00,
2013-01-18 08:53:00,21.6,15.5,30.48,SE,135,7.2,8.1,77,0.00,,,0.00,WUHU216HW,2013-01-18 13:53:00,
2013-01-18 08:58:00,22.0,15.9,30.48,SSE,158,6.3,7.2,77,0.00,,,0.00,WUHU216HW,2013-01-18 13:58:00,
2013-01-18 09:03:00,22.3,16.2,30.48,SE,135,6.9,8.3,77,0.00,,,0.00,WUHU216HW,2013-01-18 14:03:00,
2013-01-18 09:08:00,22.7,16.6,30.48,SSE,158,6.9,8.3,77,0.00,,,0.00,WUHU216HW,2013-01-18 14:08:00,
2013-01-18 09:13:00,22.9,16.8,30.48,SE,135,5.4,7.8,77,0.00,,,0.00,WUHU216HW,2013-01-18 14:13:00,
2013-01-18 09:18:00,23.4,17.3,30.48,SE,135,4.5,7.8,77,0.00,,,0.00,WUHU216HW,2013-01-18 14:18:00,
2013-01-18 09:23:00,23.6,17.5,30.48,SSE,158,8.9,8.9,77,0.00,,,0.00,WUHU216HW,2013-01-18 14:23:00,
2013-01-18 09:28:00,23.9,17.8,30.48,SE,135,6.5,8.9,77,0.00,,,0.00,WUHU216HW,2013-01-18 14:28:00,
2013-01-18 09:33:00,24.3,18.1,30.48,SE,135,7.2,8.1,77,0.00,,,0.00,WUHU216HW,2013-01-18 14:33:00,
2013-01-18 09:38:00,24.7,18.2,30.47,SE,135,5.1,8.1,76,0.00,,,0.00,WUHU216HW,2013-01-18 14:38:00,
2013-01-18 09:43:00,24.8,18.4,30.48,SSE,158,8.1,8.1,76,0.00,,,0.00,WUHU216HW,2013-01-18 14:43:00,
2013-01-18 09:48:00,25.0,18.5,30.48,SSE,158,7.8,8.7,76,0.00,,,0.00,WUHU216HW,2013-01-18 14:48:00,
2013-01-18 09:53:00,25.4,18.8,30.47,SSE,158,8.3,8.7,76,0.00,,,0.00,WUHU216HW,2013-01-18 14:53:00,
2013-01-18 09:58:00,25.6,19.0,30.47,SSE,158,7.6,10.5,76,0.00,,,0.00,WUHU216HW,2013-01-18 14:58:00,
2013-01-18 10:03:00,25.7,19.5,30.47,SSE,158,8.7,10.5,77,0.00,,,0.00,WUHU216HW,2013-01-18 15:03:00,
2013-01-18 10:08:00,25.9,20.3,30.47,SSE,158,10.3,13.0,79,0.00,,,0.00,WUHU216HW,2013-01-18 15:08:00,
2013-01-18 10:13:00,25.9,20.6,30.47,SSE,158,8.3,13.0,80,0.00,,,0.00,WUHU216HW,2013-01-18 15:13:00,
2013-01-18 10:18:00,25.9,20.9,30.47,South,180,6.9,10.5,81,0.00,,,0.00,WUHU216HW,2013-01-18 15:18:00,
2013-01-18 10:23:00,26.1,21.1,30.47,SE,135,7.2,10.5,81,0.00,,,0.00,WUHU216HW,2013-01-18 15:23:00,
2013-01-18 10:28:00,26.5,22.0,30.47,South,180,8.7,11.6,83,0.00,,,0.00,WUHU216HW,2013-01-18 15:28:00,
2013-01-18 10:33:00,27.0,22.1,30.47,SSW,203,11.0,11.6,82,0.00,,,0.00,WUHU216HW,2013-01-18 15:33:00,
2013-01-18 10:38:00,27.5,22.4,30.47,SW,225,10.5,11.4,81,0.00,,,0.00,WUHU216HW,2013-01-18 15:38:00,
2013-01-18 10:43:00,27.9,22.5,30.47,South,180,8.7,13.4,80,0.00,,,0.00,WUHU216HW,2013-01-18 15:43:00,
2013-01-18 10:48:00,28.3,22.6,30.46,South,180,15.0,15.0,79,0.00,,,0.00,WUHU216HW,2013-01-18 15:48:00,
2013-01-18 10:53:00,28.3,22.0,30.46,SSE,158,11.4,15.0,77,0.00,,,0.00,WUHU216HW,2013-01-18 15:53:00,
2013-01-18 10:58:00,28.6,22.3,30.46,SSW,203,13.9,15.0,77,0.00,,,0.00,WUHU216HW,2013-01-18 15:58:00,
2013-01-18 11:03:00,29.0,22.3,30.45,SSW,203,16.1,16.1,76,0.00,,,0.00,WUHU216HW,2013-01-18 16:03:00,
2013-01-18 11:08:00,29.2,22.5,30.45,SW,225,12.1,16.1,76,0.00,,,0.00,WUHU216HW,2013-01-18 16:08:00,
2013-01-18 11:13:00,29.5,22.5,30.44,SSE,158,14.3,16.8,75,0.00,,,0.00,WUHU216HW,2013-01-18 16:13:00,
2013-01-18 11:18:00,29.5,22.9,30.43,SSW,203,12.3,17.9,76,0.00,,,0.00,WUHU216HW,2013-01-18 16:18:00,
2013-01-18 11:23:00,29.9,22.9,30.42,South,180,9.2,17.9,75,0.00,,,0.00,WUHU216HW,2013-01-18 16:23:00,
2013-01-18 11:28:00,29.9,22.2,30.42,SSE,158,14.5,17.9,73,0.00,,,0.00,WUHU216HW,2013-01-18 16:28:00,
2013-01-18 11:33:00,29.9,22.2,30.41,SSE,158,13.2,15.0,73,0.00,,,0.00,WUHU216HW,2013-01-18 16:33:00,
2013-01-18 11:38:00,30.2,22.6,30.41,South,180,13.4,15.9,73,0.00,,,0.00,WUHU216HW,2013-01-18 16:38:00,
2013-01-18 11:43:00,30.6,22.0,30.40,SSE,158,14.3,15.9,70,0.00,,,0.00,WUHU216HW,2013-01-18 16:43:00,
2013-01-18 11:48:00,30.6,20.9,30.39,SSE,158,11.0,14.3,67,0.00,,,0.00,WUHU216HW,2013-01-18 16:48:00,
2013-01-18 11:53:00,31.1,22.1,30.39,SSW,203,13.4,15.7,69,0.00,,,0.00,WUHU216HW,2013-01-18 16:53:00,
2013-01-18 11:58:00,31.5,21.4,30.39,SSE,158,12.8,17.2,66,0.00,,,0.00,WUHU216HW,2013-01-18 16:58:00,
2013-01-18 12:03:00,31.5,21.4,30.39,SSW,203,14.5,17.2,66,0.00,,,0.00,WUHU216HW,2013-01-18 17:03:00,
2013-01-18 12:08:00,31.7,21.6,30.38,SSW,203,12.3,19.5,66,0.00,,,0.00,WUHU216HW,2013-01-18 17:08:00,
2013-01-18 12:13:00,32.0,22.0,30.37,SW,225,19.5,19.5,66,0.00,,,0.00,WUHU216HW,2013-01-18 17:13:00,
2013-01-18 12:18:00,32.0,21.2,30.37,SSW,203,14.5,19.5,64,0.00,,,0.00,WUHU216HW,2013-01-18 17:18:00,
2013-01-18 12:23:00,32.2,21.8,30.37,SSW,203,18.6,18.6,65,0.00,,,0.00,WUHU216HW,2013-01-18 17:23:00,
2013-01-18 12:28:00,32.2,21.1,30.36,SW,225,16.3,21.9,63,0.00,,,0.00,WUHU216HW,2013-01-18 17:28:00,
2013-01-18 12:33:00,32.0,20.9,30.36,SSW,203,13.2,21.9,63,0.00,,,0.00,WUHU216HW,2013-01-18 17:33:00,
2013-01-18 12:38:00,32.0,20.9,30.35,SSW,203,16.3,17.9,63,0.00,,,0.00,WUHU216HW,2013-01-18 17:38:00,
2013-01-18 12:43:00,32.0,21.2,30.34,SW,225,13.2,19.5,64,0.00,,,0.00,WUHU216HW,2013-01-18 17:43:00,
2013-01-18 12:48:00,32.0,21.2,30.34,SSW,203,15.0,19.5,64,0.00,,,0.00,WUHU216HW,2013-01-18 17:48:00,
2013-01-18 12:53:00,32.2,21.4,30.34,SW,225,15.0,19.9,64,0.00,,,0.00,WUHU216HW,2013-01-18 17:53:00,
2013-01-18 12:58:00,32.2,21.4,30.33,SSW,203,21.5,21.5,64,0.00,,,0.00,WUHU216HW,2013-01-18 17:58:00,
2013-01-18 13:03:00,32.4,22.0,30.32,SSW,203,13.9,21.5,65,0.00,,,0.00,WUHU216HW,2013-01-18 18:03:00,
2013-01-18 13:08:00,32.6,22.1,30.32,SSW,203,20.1,20.4,65,0.00,,,0.00,WUHU216HW,2013-01-18 18:08:00,
2013-01-18 13:13:00,32.8,22.2,30.31,South,180,18.3,20.4,65,0.00,,,0.00,WUHU216HW,2013-01-18 18:13:00,
2013-01-18 13:18:00,33.1,22.6,30.30,SSW,203,22.8,22.8,65,0.00,,,0.00,WUHU216HW,2013-01-18 18:18:00,
2013-01-18 13:23:00,33.5,22.5,30.29,South,180,19.0,22.8,64,0.00,,,0.00,WUHU216HW,2013-01-18 18:23:00,
2013-01-18 13:28:00,33.5,22.9,30.29,SSE,158,20.8,20.8,65,0.00,,,0.00,WUHU216HW,2013-01-18 18:28:00,
2013-01-18 13:33:00,33.5,22.5,30.28,SE,135,13.4,21.0,64,0.00,,,0.00,WUHU216HW,2013-01-18 18:33:00,
2013-01-18 13:38:00,33.8,23.2,30.28,South,180,15.7,21.0,65,0.00,,,0.00,WUHU216HW,2013-01-18 18:38:00,
2013-01-18 13:43:00,33.5,22.5,30.27,SSW,203,19.9,19.9,64,0.00,,,0.00,WUHU216HW,2013-01-18 18:43:00,
2013-01-18 13:48:00,33.5,22.5,30.27,South,180,15.0,20.1,64,0.00,,,0.00,WUHU216HW,2013-01-18 18:48:00,
2013-01-18 13:53:00,33.5,22.5,30.26,SSW,203,16.6,20.1,64,0.00,,,0.00,WUHU216HW,2013-01-18 18:53:00,
2013-01-18 13:58:00,33.7,22.7,30.26,SW,225,13.9,21.7,64,0.00,,,0.00,WUHU216HW,2013-01-18 18:58:00,
2013-01-18 14:03:00,33.8,22.9,30.25,SSW,203,17.2,21.7,64,0.00,,,0.00,WUHU216HW,2013-01-18 19:03:00,
2013-01-18 14:08:00,34.2,23.2,30.25,SSW,203,17.2,25.1,64,0.00,,,0.00,WUHU216HW,2013-01-18 19:08:00,
2013-01-18 14:13:00,34.2,22.9,30.24,SSW,203,19.7,25.1,63,0.00,,,0.00,WUHU216HW,2013-01-18 19:13:00,
2013-01-18 14:18:00,34.4,23.4,30.24,South,180,17.4,21.5,64,0.00,,,0.00,WUHU216HW,2013-01-18 19:18:00,
2013-01-18 14:23:00,34.9,23.6,30.24,SSW,203,18.6,19.5,63,0.00,,,0.00,WUHU216HW,2013-01-18 19:23:00,
2013-01-18 14:28:00,35.1,23.8,30.23,SW,225,18.3,20.6,63,0.00,,,0.00,WUHU216HW,2013-01-18 19:28:00,
2013-01-18 14:33:00,35.3,23.6,30.23,SSW,203,20.4,20.6,62,0.00,,,0.00,WUHU216HW,2013-01-18 19:33:00,
2013-01-18 14:38:00,35.6,23.9,30.22,South,180,19.2,21.9,62,0.00,,,0.00,WUHU216HW,2013-01-18 19:38:00,
2013-01-18 14:43:00,36.2,24.5,30.23,SSW,203,19.5,23.7,62,0.00,,,0.00,WUHU216HW,2013-01-18 19:43:00,
2013-01-18 14:48:00,36.5,24.8,30.24,SW,225,17.7,23.7,62,0.00,,,0.00,WUHU216HW,2013-01-18 19:48:00,
2013-01-18 14:53:00,36.4,24.6,30.23,SSW,203,22.4,22.4,62,0.00,,,0.00,WUHU216HW,2013-01-18 19:53:00,
2013-01-18 14:58:00,36.5,24.8,30.22,SSW,203,20.8,22.4,62,0.00,,,0.00,WUHU216HW,2013-01-18 19:58:00,
2013-01-18 15:04:00,36.7,24.9,30.21,SSE,158,25.7,25.7,62,0.00,,,0.00,WUHU216HW,2013-01-18 20:04:00,
2013-01-18 15:09:00,36.9,25.1,30.22,SSW,203,13.2,25.7,62,0.00,,,0.00,WUHU216HW,2013-01-18 20:09:00,
2013-01-18 15:14:00,37.1,25.3,30.21,SW,225,15.7,21.0,62,0.00,,,0.00,WUHU216HW,2013-01-18 20:14:00,
2013-01-18 15:19:00,37.1,25.3,30.20,SSW,203,18.1,21.0,62,0.00,,,0.00,WUHU216HW,2013-01-18 20:19:00,
2013-01-18 15:24:00,37.1,25.3,30.20,South,180,13.6,20.1,62,0.00,,,0.00,WUHU216HW,2013-01-18 20:24:00,
2013-01-18 15:29:00,37.1,25.7,30.19,South,180,17.0,21.3,63,0.00,,,0.00,WUHU216HW,2013-01-18 20:29:00,
2013-01-18 15:34:00,37.3,25.8,30.19,SSW,203,16.3,21.3,63,0.00,,,0.00,WUHU216HW,2013-01-18 20:34:00,
2013-01-18 15:39:00,37.4,26.0,30.19,SSE,158,16.1,19.9,63,0.00,,,0.00,WUHU216HW,2013-01-18 20:39:00,
2013-01-18 15:44:00,37.3,25.8,30.18,South,180,16.1,19.9,63,0.00,,,0.00,WUHU216HW,2013-01-18 20:44:00,
2013-01-18 15:49:00,37.1,26.0,30.18,South,180,15.0,20.4,64,0.00,,,0.00,WUHU216HW,2013-01-18 20:49:00,
2013-01-18 15:54:00,37.1,26.0,30.18,SSW,203,17.2,22.1,64,0.00,,,0.00,WUHU216HW,2013-01-18 20:54:00,
2013-01-18 15:59:00,37.1,26.0,30.17,South,180,15.4,23.3,64,0.00,,,0.00,WUHU216HW,2013-01-18 20:59:00,
2013-01-18 16:04:00,37.1,26.4,30.16,SW,225,15.2,27.3,65,0.00,,,0.00,WUHU216HW,2013-01-18 21:04:00,
2013-01-18 16:09:00,36.9,26.6,30.16,South,180,18.6,27.3,66,0.00,,,0.00,WUHU216HW,2013-01-18 21:09:00,
2013-01-18 16:14:00,36.9,26.6,30.16,SSE,158,15.0,18.6,66,0.00,,,0.00,WUHU216HW,2013-01-18 21:14:00,
2013-01-18 16:19:00,36.9,26.6,30.15,South,180,19.2,19.2,66,0.00,,,0.00,WUHU216HW,2013-01-18 21:19:00,
2013-01-18 16:24:00,36.7,26.5,30.15,SSW,203,19.2,20.8,66,0.00,,,0.00,WUHU216HW,2013-01-18 21:24:00,
2013-01-18 16:29:00,36.7,26.8,30.14,SSW,203,15.0,23.0,67,0.00,,,0.00,WUHU216HW,2013-01-18 21:29:00,
2013-01-18 16:34:00,36.7,26.8,30.14,SSE,158,13.0,23.0,67,0.00,,,0.00,WUHU216HW,2013-01-18 21:34:00,
2013-01-18 16:39:00,36.7,26.8,30.13,South,180,16.6,20.8,67,0.00,,,0.00,WUHU216HW,2013-01-18 21:39:00,
2013-01-18 16:44:00,36.7,26.8,30.13,SSW,203,17.9,20.8,67,0.00,,,0.00,WUHU216HW,2013-01-18 21:44:00,
2013-01-18 16:49:00,36.7,26.8,30.13,South,180,13.2,18.8,67,0.00,,,0.00,WUHU216HW,2013-01-18 21:49:00,
2013-01-18 16:54:00,36.5,27.0,30.13,SSE,158,16.1,17.7,68,0.00,,,0.00,WUHU216HW,2013-01-18 21:54:00,
2013-01-18 16:59:00,36.4,26.8,30.12,South,180,16.8,17.2,68,0.00,,,0.00,WUHU216HW,2013-01-18 21:59:00,
2013-01-18 17:04:00,36.4,26.8,30.12,SW,225,11.0,17.9,68,0.00,,,0.00,WUHU216HW,2013-01-18 22:04:00,
2013-01-18 17:09:00,36.4,27.2,30.12,SSW,203,16.3,18.6,69,0.00,,,0.00,WUHU216HW,2013-01-18 22:09:00,
2013-01-18 17:14:00,36.2,27.0,30.11,South,180,16.8,18.6,69,0.00,,,0.00,WUHU216HW,2013-01-18 22:14:00,
2013-01-18 17:19:00,36.0,26.8,30.11,SW,225,11.6,17.7,69,0.00,,,0.00,WUHU216HW,2013-01-18 22:19:00,
2013-01-18 17:24:00,36.0,27.2,30.10,ESE,113,11.4,17.7,70,0.00,,,0.00,WUHU216HW,2013-01-18 22:24:00,
2013-01-18 17:29:00,36.0,27.2,30.10,SE,135,15.9,19.2,70,0.00,,,0.00,WUHU216HW,2013-01-18 22:29:00,
2013-01-18 17:34:00,36.2,27.4,30.09,SSW,203,16.3,19.2,70,0.00,,,0.00,WUHU216HW,2013-01-18 22:34:00,
2013-01-18 17:39:00,36.2,27.4,30.10,SW,225,13.6,18.3,70,0.00,,,0.00,WUHU216HW,2013-01-18 22:39:00,
2013-01-18 17:44:00,36.2,27.4,30.09,SSW,203,16.3,18.3,70,0.00,,,0.00,WUHU216HW,2013-01-18 22:44:00,
2013-01-18 17:49:00,36.4,27.5,30.09,SSW,203,17.9,19.7,70,0.00,,,0.00,WUHU216HW,2013-01-18 22:49:00,
2013-01-18 17:54:00,36.7,27.9,30.09,SSW,203,17.9,19.7,70,0.00,,,0.00,WUHU216HW,2013-01-18 22:54:00,
2013-01-18 17:59:00,36.7,27.9,30.08,SSW,203,13.0,20.4,70,0.00,,,0.00,WUHU216HW,2013-01-18 22:59:00,
2013-01-18 18:04:00,36.9,27.7,30.08,SSW,203,13.2,24.2,69,0.00,,,0.00,WUHU216HW,2013-01-18 23:04:00,
2013-01-18 18:09:00,37.1,27.9,30.09,SSW,203,15.4,24.2,69,0.00,,,0.00,WUHU216HW,2013-01-18 23:09:00,
2013-01-18 18:14:00,37.1,27.9,30.10,SSW,203,14.5,19.0,69,0.00,,,0.00,WUHU216HW,2013-01-18 23:14:00,
2013-01-18 18:19:00,37.1,27.6,30.10,SW,225,14.8,19.0,68,0.00,,,0.00,WUHU216HW,2013-01-18 23:19:00,
2013-01-18 18:24:00,37.4,27.9,30.10,SW,225,10.5,17.7,68,0.00,,,0.00,WUHU216HW,2013-01-18 23:24:00,
2013-01-18 18:29:00,37.4,27.5,30.11,SSW,203,11.6,17.7,67,0.00,,,0.00,WUHU216HW,2013-01-18 23:29:00,
2013-01-18 18:34:00,37.4,27.5,30.11,SW,225,12.3,15.0,67,0.00,,,0.00,WUHU216HW,2013-01-18 23:34:00,
2013-01-18 18:39:00,37.6,27.6,30.10,SSW,203,12.1,16.3,67,0.00,,,0.00,WUHU216HW,2013-01-18 23:39:00,
2013-01-18 18:44:00,37.6,27.3,30.10,SSW,203,18.3,18.3,66,0.00,,,0.00,WUHU216HW,2013-01-18 23:44:00,
2013-01-18 18:49:00,37.8,27.5,30.11,South,180,13.9,18.3,66,0.00,,,0.00,WUHU216HW,2013-01-18 23:49:00,
2013-01-18 18:54:00,37.8,27.5,30.11,SW,225,12.1,16.8,66,0.00,,,0.00,WUHU216HW,2013-01-18 23:54:00,
2013-01-18 18:59:00,37.6,26.9,30.11,SW,225,11.4,17.0,65,0.00,,,0.00,WUHU216HW,2013-01-18 23:59:00,
2013-01-18 19:04:00,37.4,26.7,30.11,SSW,203,12.5,17.0,65,0.00,,,0.00,WUHU216HW,2013-01-19 00:04:00,
2013-01-18 19:09:00,37.4,26.7,30.11,SW,225,17.7,17.7,65,0.00,,,0.00,WUHU216HW,2013-01-19 00:09:00,
2013-01-18 19:14:00,37.3,26.9,30.11,SSW,203,8.9,17.7,66,0.00,,,0.00,WUHU216HW,2013-01-19 00:14:00,
2013-01-18 19:19:00,37.1,26.7,30.11,SW,225,15.7,15.7,66,0.00,,,0.00,WUHU216HW,2013-01-19 00:19:00,
2013-01-18 19:24:00,37.3,26.6,30.11,SW,225,15.9,19.2,65,0.00,,,0.00,WUHU216HW,2013-01-19 00:24:00,
2013-01-18 19:29:00,37.3,26.6,30.11,SW,225,17.9,19.2,65,0.00,,,0.00,WUHU216HW,2013-01-19 00:29:00,
2013-01-18 19:34:00,37.3,26.6,30.11,SSW,203,12.5,17.9,65,0.00,,,0.00,WUHU216HW,2013-01-19 00:34:00,
2013-01-18 19:39:00,37.3,26.2,30.11,SSW,203,14.3,17.0,64,0.00,,,0.00,WUHU216HW,2013-01-19 00:39:00,
2013-01-18 19:44:00,37.1,26.4,30.11,SW,225,13.4,17.0,65,0.00,,,0.00,WUHU216HW,2013-01-19 00:44:00,
2013-01-18 19:49:00,37.1,26.4,30.11,SW,225,13.9,17.4,65,0.00,,,0.00,WUHU216HW,2013-01-19 00:49:00,
2013-01-18 19:55:00,37.1,26.4,30.11,SSW,203,10.5,17.4,65,0.00,,,0.00,WUHU216HW,2013-01-19 00:55:00,
2013-01-18 20:00:00,36.9,26.2,30.11,SW,225,15.9,18.1,65,0.00,,,0.00,WUHU216HW,2013-01-19 01:00:00,
2013-01-18 20:05:00,36.9,26.2,30.11,SW,225,13.9,18.1,65,0.00,,,0.00,WUHU216HW,2013-01-19 01:05:00,
2013-01-18 20:10:00,36.9,26.2,30.10,SW,225,11.4,17.0,65,0.00,,,0.00,WUHU216HW,2013-01-19 01:10:00,
2013-01-18 20:15:00,36.7,26.0,30.10,WSW,248,15.2,15.9,65,0.00,,,0.00,WUHU216HW,2013-01-19 01:15:00,
2013-01-18 20:20:00,36.7,26.0,30.10,SSW,203,19.2,19.9,65,0.00,,,0.00,WUHU216HW,2013-01-19 01:20:00,
2013-01-18 20:25:00,37.1,26.4,30.09,SW,225,20.1,25.3,65,0.00,,,0.00,WUHU216HW,2013-01-19 01:25:00,
2013-01-18 20:30:00,37.1,26.4,30.10,SW,225,14.3,25.3,65,0.00,,,0.00,WUHU216HW,2013-01-19 01:30:00,
2013-01-18 20:35:00,37.1,26.4,30.09,SW,225,16.6,23.7,65,0.00,,,0.00,WUHU216HW,2013-01-19 01:35:00,
2013-01-18 20:40:00,37.1,26.4,30.09,SW,225,21.9,22.4,65,0.00,,,0.00,WUHU216HW,2013-01-19 01:40:00,
2013-01-18 20:45:00,37.1,26.4,30.09,SW,225,21.7,21.9,65,0.00,,,0.00,WUHU216HW,2013-01-19 01:45:00,
2013-01-18 20:50:00,37.3,26.6,30.09,SW,225,13.6,22.1,65,0.00,,,0.00,WUHU216HW,2013-01-19 01:50:00,
2013-01-18 20:55:00,37.4,26.7,30.09,SW,225,17.7,22.1,65,0.00,,,0.00,WUHU216HW,2013-01-19 01:55:00,
2013-01-18 21:00:00,37.4,27.1,30.08,WSW,248,20.1,21.5,66,0.00,,,0.00,WUHU216HW,2013-01-19 02:00:00,
2013-01-18 21:05:00,37.4,27.1,30.08,WSW,248,19.2,23.7,66,0.00,,,0.00,WUHU216HW,2013-01-19 02:05:00,
2013-01-18 21:10:00,37.4,27.5,30.08,SSW,203,17.9,24.4,67,0.00,,,0.00,WUHU216HW,2013-01-19 02:10:00,
2013-01-18 21:15:00,37.4,27.5,30.08,WSW,248,25.1,25.1,67,0.00,,,0.00,WUHU216HW,2013-01-19 02:15:00,
2013-01-18 21:20:00,37.3,27.3,30.08,SW,225,24.2,25.7,67,0.00,,,0.00,WUHU216HW,2013-01-19 02:20:00,
2013-01-18 21:25:00,37.3,27.3,30.08,SW,225,19.7,27.3,67,0.00,,,0.00,WUHU216HW,2013-01-19 02:25:00,
2013-01-18 21:30:00,37.1,27.6,30.08,SW,225,29.1,29.1,68,0.00,,,0.00,WUHU216HW,2013-01-19 02:30:00,
2013-01-18 21:35:00,37.3,27.7,30.08,SSW,203,17.7,29.1,68,0.00,,,0.00,WUHU216HW,2013-01-19 02:35:00,
2013-01-18 21:40:00,37.3,28.1,30.08,WSW,248,17.9,25.3,69,0.00,,,0.00,WUHU216HW,2013-01-19 02:40:00,
2013-01-18 21:45:00,37.3,28.1,30.07,SW,225,16.1,27.3,69,0.00,,,0.00,WUHU216HW,2013-01-19 02:45:00,
2013-01-18 21:50:00,37.3,28.4,30.07,SW,225,23.0,27.3,70,0.00,,,0.00,WUHU216HW,2013-01-19 02:50:00,
2013-01-18 21:55:00,37.4,28.6,30.07,SSW,203,21.0,27.3,70,0.00,,,0.00,WUHU216HW,2013-01-19 02:55:00,
2013-01-18 22:00:00,37.6,28.8,30.07,SW,225,26.8,27.5,70,0.00,,,0.00,WUHU216HW,2013-01-19 03:00:00,
2013-01-18 22:05:00,37.8,29.0,30.07,SW,225,18.6,31.1,70,0.00,,,0.00,WUHU216HW,2013-01-19 03:05:00,
2013-01-18 22:10:00,37.8,29.0,30.07,SW,225,18.6,31.1,70,0.00,,,0.00,WUHU216HW,2013-01-19 03:10:00,
2013-01-18 22:39:00,38.2,29.6,30.06,SW,225,21.5,28.9,71,0.00,,,0.00,WUHU216HW,2013-01-19 03:39:00,
2013-01-18 22:44:00,38.2,29.6,30.06,WSW,248,17.2,28.9,71,0.00,,,0.00,WUHU216HW,2013-01-19 03:44:00,
2013-01-18 22:49:00,38.0,29.4,30.06,SW,225,22.6,28.2,71,0.00,,,0.00,WUHU216HW,2013-01-19 03:49:00,
2013-01-18 22:54:00,38.3,29.8,30.05,SW,225,22.4,28.2,71,0.00,,,0.00,WUHU216HW,2013-01-19 03:54:00,
2013-01-18 22:59:00,38.2,29.6,30.06,SW,225,23.0,24.4,71,0.00,,,0.00,WUHU216HW,2013-01-19 03:59:00,
2013-01-18 23:04:00,38.2,29.6,30.05,SW,225,18.8,28.2,71,0.00,,,0.00,WUHU216HW,2013-01-19 04:04:00,
2013-01-18 23:09:00,38.2,29.6,30.04,SW,225,23.0,28.2,71,0.00,,,0.00,WUHU216HW,2013-01-19 04:09:00,
2013-01-18 23:14:00,38.3,29.8,30.04,SW,225,25.3,30.4,71,0.00,,,0.00,WUHU216HW,2013-01-19 04:14:00,
2013-01-18 23:19:00,38.3,29.8,30.04,SW,225,17.2,30.4,71,0.00,,,0.00,WUHU216HW,2013-01-19 04:19:00,
2013-01-18 23:24:00,38.3,29.8,30.03,SW,225,21.9,25.3,71,0.00,,,0.00,WUHU216HW,2013-01-19 04:24:00,
2013-01-18 23:29:00,38.3,29.8,30.03,SW,225,19.9,25.3,71,0.00,,,0.00,WUHU216HW,2013-01-19 04:29:00,
2013-01-18 23:34:00,38.5,30.0,30.03,SW,225,29.3,29.8,71,0.01,,,0.02,WUHU216HW,2013-01-19 04:34:00,
2013-01-18 23:39:00,38.5,30.0,30.03,SW,225,28.9,29.8,71,0.01,,,0.02,WUHU216HW,2013-01-19 04:39:00,
2013-01-18 23:44:00,38.7,30.1,30.03,SW,225,19.9,28.9,71,0.01,,,0.02,WUHU216HW,2013-01-19 04:44:00,
2013-01-18 23:49:00,38.7,30.1,30.03,SW,225,23.9,30.0,71,0.02,,,0.02,WUHU216HW,2013-01-19 04:49:00,
2013-01-18 23:54:00,38.7,30.1,30.03,SW,225,28.4,30.0,71,0.02,,,0.02,WUHU216HW,2013-01-19 04:54:00,